FENGYUN 1C DEB, 31820

Orbit data source: Space-Track

FENGYUN 1C DEB, 31820 is space debris in SSO originally from a launch on Mon, 10 May 1999 UTC launched from the Taiyaun Space Center, China (TSC). Fengyun 1C debris stems from the Chinese weather satellite Fengyun-1C, which was intentionally destroyed by a Chinese anti-satellite missile in 2007. This event dramatically increased the amount of space debris, with thousands of trackable fragments posing hazards to satellites and human spaceflight. The Fengyun 1C debris cloud has become a focal point in discussions about space sustainability and the need for international regulations to prevent the creation of new debris.

Loading next visibility...
Identifier
31820, 1999-025CHJ
Orbit
SSO
Country
Flag of CNCN / PRC
Related business
Manufacturer
Unknown
Mission
Spacecraft
Bus & Motor
Unknown
Mass
Unknown
Launch date (UTC)
1999-05-10 (27 years ago)
Launch vehicle
Unknown
Launch site
Taiyaun Space Center, China (TSC)
Object type
Payload
Rocket body
Debris
Shape & HBR
Unknown shape, 0.1 m
Radar Cross Section
Small (<0.1 m²)

Expand to show TLE details & history
Last TLE update: 2 days ago

TLE from 2 days ago
0 FENGYUN 1C DEB
1 31820U 99025CHJ 26261.06188830  .00009959  00000-0  66980-3 0  9994
2 31820  98.9385 117.4191 0134398 187.4971 172.4242 14.99835497 23946
Epoch: 2026-09-18T01:29Z
TLE epoch observation values (Epoch: 2026-09-18T01:29:07.149Z)
Latitude
Longitude
98.14914°
Altitude
662.993 km
Speed
7.475 km/s
True Right ascension
07h 49m 40s
True Declination
0° 00' 00"
Sunlit
Object was in daylight at epoch
Visualization orbit readout
Latitude
Unknown
Longitude
Unknown
Altitude
Unknown
Speed
Unknown
Apparent Right ascension
Unknown
Apparent Declination
Unknown
Sunlit
N/A
Visualization observer readout
Local Sidereal Time
02:11:16
Azimuth
Unknown
Elevation
Unknown
Doppler factor
Unknown
Orbital elements
Apogee altitude
657.775 km
Perigee altitude
471.16 km
Semi-major axis
6,942.605 km
Eccentricity
0.01344
Inclination
98.9385°
RAAN
117.4191°
Arg. of periapsis
187.4971°
True anomaly
172.62391°
Mean anomaly
172.4242°
Eccentric anomaly
172.52439°
Mean motion
3.75197 °/min
Orbital period
95.95 mins
BSTAR
0.0006698
Loading maneuver chart data...
Computing Atmospheric mass density...

Documentation

Showing up to 5 results
|